RH
74 80 82 92 84 87 94 96 96 97 99 99 99 99 98 97 94 88 80 76 73 76 76 74 74 72 74 73 72 78 77 77
74 77 83 89 85 94 96 96 98 98 99 99 100 99 98 96 96 88 80 73 71 73 74 74 72 70 73 71 76 73 81 84
82 84 86 84 86 94 96 94 97 96 96 98 96 98 97 94 94 86 80 75 71 70 73 71 70 78 77 76 75 84 85 85
87 83 82 81 86 94 94 94 95 95 94 96 97 96 95 94 89 88 84 77 72 68 71 74 76 78 79 81 81 75 75 79
79 80 78 75 76 91 91 94 95 95 92 88 90 91 96 90 86 86 85 77 76 72 71 74 79 83 84 78 72 79 72 69
76 75 71 70 79 94 93 95 96 95 93 87 92 95 96 95 93 84 88 80 76 71 74 82 83 81 75 71 71 73 78 76
65 67 68 71 92 97 97 96 95 95 93 92 92 93 96 96 92 86 89 84 82 79 78 77 72 69 69 68 69 68 75 83
64 69 71 83 94 97 96 95 95 96 95 93 93 95 91 90 85 83 86 84 82 78 70 70 67 70 76 74 73 77 80 86
56 61 70 83 92 95 94 95 89 95 96 95 96 92 86 87 86 84 83 77 75 72 81 79 75 70 71 75 78 79 78 89
55 59 72 88 92 94 94 92 88 92 95 96 97 96 91 88 90 86 80 75 70 83 75 77 84 89 78 78 77 75 80 86
70 74 84 89 92 92 93 91 90 92 95 95 96 95 90 89 85 80 74 79 83 81 88 91 92 79 75 77 76 76 84 87
79 90 92 93 94 95 94 94 95 96 97 96 96 92 84 81 78 77 83 84 83 85 90 91 75 76 78 77 76 78 84 84
89 92 96 98 96 97 96 95 96 96 95 93 90 84 84 87 84 81 83 86 86 93 81 70 69 73 74 78 78 72 81 81
90 94 95 95 96 96 97 97 98 95 92 90 89 89 84 83 83 82 84 91 87 76 73 71 69 73 76 76 76 77 80 81
86 91 93 93 94 95 96 95 95 94 90 89 89 85 84 79 77 87 88 79 77 71 69 67 72 69 70 74 74 78 81 82
76 80 88 90 93 96 96 96 93 90 88 88 90 86 77 80 85 78 82 83 74 64 67 70 70 72 70 79 79 81 83 84
69 75 78 90 95 97 96 94 90 87 89 90 80 80 79 73 74 80 81 69 64 63 74 74 76 66 74 80 83 85 82 80
93 95 94 94 96 94 95 94 90 88 80 73 73 73 73 72 66 63 63 72 89 88 90 78 78 80 81 82 83 88 83 81
74 86 87 89 85 81 76 74 76 74 70 68 64 62 62 65 71 81 90 92 94 92 81 78 81 77 82 84 86 91 85 80
Wind_Speed
11 8 8 7 7 7 7 6 7 7 5 4 4 3 3 3 3 4 6 6 7 6 5 6 5 4 4 3 3 3 2 0
10 8 8 8 7 7 8 9 8 8 4 4 3 3 3 2 3 5 6 6 6 7 5 5 5 5 5 4 3 3 2 2
11 9 11 12 11 11 10 11 12 9 7 4 3 4 2 2 2 4 6 7 7 6 7 5 6 5 5 4 4 3 1 1
13 14 15 12 13 14 13 11 12 10 8 6 4 4 3 2 2 3 4 6 7 7 6 6 5 4 4 3 4 5 4 2
13 14 13 16 14 9 9 9 10 9 10 9 8 6 5 4 4 4 4 6 6 5 6 6 6 4 5 3 2 1 3 1
16 18 19 12 10 11 11 10 10 9 10 10 7 4 2 2 2 6 5 4 6 6 6 6 6 4 5 5 4 3 1 2
14 13 9 10 7 8 9 12 11 10 11 9 10 8 5 3 4 5 5 4 4 6 7 7 7 7 6 4 5 5 4 3
12 13 13 11 14 13 12 13 13 12 12 11 10 9 9 8 7 7 8 5 3 6 8 8 5 6 7 6 4 5 4 3
14 15 14 14 15 15 15 14 15 12 11 11 8 9 6 7 8 8 7 6 7 7 6 6 5 5 2 5 3 3 4 4
14 12 14 14 15 17 17 14 13 11 12 10 9 8 9 8 8 8 7 9 8 8 9 9 4 4 5 6 4 4 4 3
6 8 10 10 12 12 12 13 15 12 11 10 9 10 9 7 7 9 10 11 11 11 9 6 7 6 4 4 3 3 5 4
8 8 7 8 7 10 10 11 12 11 11 11 9 8 8 9 10 10 11 12 11 9 7 6 6 5 6 5 4 5 6 5
7 6 7 8 10 10 13 13 11 10 8 8 6 7 9 9 11 12 13 10 7 8 8 7 7 5 4 6 7 6 7 6
6 7 9 11 11 9 8 7 6 7 7 8 8 8 9 9 10 11 9 10 10 5 5 8 3 6 6 9 8 6 7 7
5 5 6 4 3 4 5 6 7 8 8 8 9 9 9 10 10 9 6 7 6 6 6 4 5 7 7 5 7 7 7 7
6 5 5 5 6 5 5 6 6 7 8 9 8 9 10 10 7 7 7 7 5 6 6 4 6 5 4 7 7 7 7 7
6 4 4 5 6 7 7 7 7 9 9 9 9 10 8 8 9 9 7 3 6 3 3 3 5 5 10 10 8 6 7 6
8 8 7 6 6 6 7 7 7 9 10 10 10 10 10 9 8 6 6 5 3 3 5 6 7 6 7 10 10 6 6 6
8 7 8 8 9 11 11 10 11 12 12 13 12 12 11 7 6 5 2 2 4 5 6 6 5 5 9 10 11 6 6 7
Wind_Direction
208 171 170 176 180 172 159 155 147 135 112 105 96 113 120 149 158 158 148 143 140 124 121 139 135 123 109 98 102 59 96 214
203 178 166 167 171 168 167 155 155 146 143 143 140 162 157 144 158 176 150 139 140 139 141 138 145 126 144 139 115 104 41 344
208 188 176 184 180 180 177 180 168 173 163 144 148 136 148 148 178 176 162 147 147 151 151 152 146 127 138 128 125 121 142 286
197 197 192 184 186 186 187 186 177 171 159 123 87 89 86 144 175 162 172 159 163 155 152 142 145 136 131 130 139 150 161 242
198 198 205 204 199 178 181 177 178 172 167 168 169 174 168 202 171 150 157 164 164 136 137 147 135 121 118 130 107 97 110 136
204 202 205 195 187 180 181 172 180 178 181 185 179 180 137 117 161 146 135 124 140 149 142 126 113 107 123 119 112 98 80 128
206 207 188 190 158 163 176 182 188 182 190 186 186 178 154 172 165 164 139 135 141 137 131 132 141 137 135 144 137 153 146 130
190 182 184 175 177 176 187 192 194 190 195 199 197 177 182 197 181 169 152 152 152 156 152 152 131 117 134 168 160 144 140 135
195 192 187 186 184 186 192 198 202 191 192 208 195 181 188 187 176 166 170 160 136 127 109 99 131 137 151 139 137 151 162 182
195 189 188 187 188 195 195 198 200 195 198 199 195 192 189 189 170 150 143 130 130 123 130 137 153 175 183 152 169 172 175 197
215 199 192 190 196 194 194 199 199 195 195 203 205 197 184 156 144 143 144 134 132 141 141 167 182 206 155 163 192 181 186 210
203 196 195 191 184 190 198 197 195 195 193 192 188 180 160 142 147 142 144 142 146 157 160 175 166 169 181 175 198 209 217 219
205 187 173 180 190 189 196 198 195 198 185 169 159 137 142 147 145 152 146 150 170 161 162 157 171 179 175 202 212 213 212 223
198 178 195 199 200 197 189 182 192 145 145 145 135 137 141 146 145 137 142 148 157 142 153 143 193 214 206 219 219 214 216 224
216 211 203 190 173 151 158 137 147 143 138 139 137 141 135 132 141 138 140 138 121 128 133 213 200 217 224 222 219 222 225 227
226 216 167 149 140 125 110 106 109 126 129 129 128 124 130 131 116 97 104 121 167 173 150 195 235 236 226 230 226 225 228 237
344 343 80 132 136 129 113 101 105 115 121 120 118 110 105 108 114 115 125 138 132 119 233 263 278 246 236 240 225 224 229 225
34 37 43 72 87 84 84 98 97 95 99 97 94 96 98 96 100 111 123 111 87 246 267 254 246 256 256 254 251 227 223 221
25 32 51 55 76 84 88 84 83 85 83 87 93 97 99 94 86 66 13 239 233 234 245 247 247 260 257 260 259 232 225 229